#timestamp,LO_Frequency,Hit,StdDev 
1520359215.3,286047000.1,N
1520359235.2,286047000.0,N
1520359255.0,286047000.4,N
1520359255.9,286047000.4,N
1520359275.8,286047002.7,N
1520359295.6,286047002.0,N
1520359315.4,286047002.5,N
1520359335.3,286047000.6,N
1520359355.1,286046998.3,N
1520359375.8,286046997.0,N
1520359395.7,286046998.0,N
1520359415.5,286046997.6,N
1520359435.4,286046996.5,N
1520359455.2,286046998.0,N
1520359475.0,286046996.0,N
1520359475.9,286046996.0,N
1520359495.8,286046993.7,N
1520359515.6,286046995.9,N
1520359535.4,286046997.2,N
1520359555.3,286046996.9,N
1520359575.1,286046996.9,N
1520359595.9,286046996.8,N
1520359615.7,286046997.1,N
1520359635.5,286046996.9,N
1520359655.4,286046998.7,N
1520359675.2,286046999.3,N
1520359695.1,286046994.9,N
1520359696.0,286046994.9,N
1520359715.8,286046995.3,N
1520359735.6,286046997.9,N
1520359755.5,286046997.3,N
1520359775.3,286046999.3,N
1520359795.1,286046997.2,N
1520359815.9,286046995.4,N
1520359835.7,286046996.2,N
1520359855.6,286046997.1,N
1520359875.4,286046997.7,N
1520359895.2,286046999.0,N
1520359915.1,286047000.7,N
1520359916.0,286047000.7,N
1520359935.8,286047001.4,N
1520359955.6,286047003.1,N
1520359975.5,286047003.1,N
1520359995.3,286047005.3,N
1520360015.2,286047005.9,N
1520360035.9,286047004.8,N
1520360055.7,286047007.2,N
1520360075.6,286047006.8,N
1520360095.4,286047005.3,N
1520360115.2,286047005.2,N
1520360135.1,286047009.1,N
1520360136.0,286047009.1,N
1520360155.8,286047010.5,N
1520360175.7,286047009.1,N
1520360195.5,286047008.0,N
1520360215.3,286047008.4,N
1520360235.2,286047008.7,N
1520360255.0,286047009.1,N
1520360255.9,286047009.1,N
1520360275.8,286047006.1,N
1520360295.6,286047006.7,N
1520360315.4,286047007.3,N
1520360335.3,286047002.9,N
1520360355.1,286047003.7,N
1520360356.0,286047003.7,N
1520360375.8,286047003.5,N
1520360395.7,286047003.4,N
1520360415.5,286047003.8,N
1520360435.4,286047001.5,N
1520360455.2,286047002.1,N
1520360475.0,286047000.5,N
1520360475.9,286047000.5,N
1520360495.8,286046999.3,N
1520360515.6,286046997.1,N
1520360535.4,286046996.7,N
1520360555.3,286047001.2,N
1520360575.1,286047002.3,N
1520360595.9,286047001.9,N
1520360615.7,286047001.3,N
1520360635.5,286047001.5,N
1520360655.4,286047001.9,N
1520360675.2,286047000.3,N
1520360695.0,286047002.5,N
1520360695.9,286047002.5,N
1520360715.8,286047004.3,N
1520360735.6,286047001.3,N
1520360755.5,286047004.2,N
1520360775.3,286047001.9,N
1520360795.1,286047000.4,N
1520360815.9,286046998.1,N
1520360835.7,286046998.1,N
1520360855.5,286046999.4,N
1520360875.4,286046996.5,N
1520360895.2,286046997.1,N
1520360915.1,286046997.6,N
1520360916.0,286046997.6,N
1520360935.8,286046997.0,N
1520360955.6,286046999.4,N
1520360975.5,286046998.9,N
1520360995.3,286046999.1,N
1520361015.2,286047000.4,N
1520361035.9,286047000.2,N
1520361055.7,286047003.7,N
1520361075.6,286047004.0,N
1520361095.4,286047001.9,N
1520361115.2,286047000.2,N
1520361135.1,286047002.4,N
1520361136.0,286047002.4,N
1520361155.8,286047001.9,N
1520361175.7,286047002.5,N
1520361195.5,286047001.8,N
1520361215.3,286047001.8,N
1520361235.2,286047002.4,N
1520361255.0,286047002.1,N
1520361255.9,286047002.1,N
1520361275.7,286047004.0,N
1520361295.6,286047001.3,N
1520361315.4,286047004.2,N
1520361335.3,286047003.0,N
1520361355.1,286047005.4,N
1520361356.0,286047005.4,N
1520361375.8,286047005.4,N
1520361395.7,286047005.7,N
1520361415.5,286047003.0,N
1520361435.3,286047011.9,Y
1520361455.2,286047001.6,P
1520361475.0,286047002.5,P
1520361475.9,286047002.5,P
1520361495.8,286047000.3,N
1520361515.6,286047002.6,Y
1520361535.4,286046998.6,P
1520361555.3,286046999.6,N
1520361575.1,286046996.9,N
1520361595.9,286046998.4,N
1520361615.7,286046998.2,N
1520361635.5,286047000.9,N
1520361655.4,286047002.7,N
1520361675.2,286047002.3,N
1520361695.0,286047002.7,N
1520361695.9,286047002.7,N
1520361715.8,286047002.2,N
1520361735.6,286047002.1,N
1520361755.5,286047000.3,N
1520361775.3,286047001.1,N
1520361795.1,286047000.8,N
1520361815.9,286046998.7,N
1520361835.7,286046999.0,N
1520361855.5,286046998.3,N
1520361875.4,286046998.1,N
1520361895.2,286047000.3,N
1520361915.1,286047000.0,N
1520361916.0,286047000.0,N
1520361935.8,286047002.0,N
1520361955.6,286047005.9,Y
1520361975.5,286047005.9,P
1520361995.3,286047005.8,N
1520362015.1,286047003.3,N
1520362035.9,286047001.7,N
1520362055.7,286047002.6,N
1520362075.6,286047000.9,N
1520362095.4,286046998.8,N
1520362115.2,286046999.5,N
1520362135.1,286046998.7,N
1520362136.0,286046998.7,N
1520362155.8,286046999.2,N
1520362175.6,286046998.4,N
1520362195.5,286046998.4,N
1520362215.3,286046998.8,N
1520362235.2,286046999.0,N
1520362255.9,286046999.2,N
1520362275.7,286047002.2,N
1520362295.6,286047002.0,N
1520362315.4,286046999.7,N
1520362335.2,286047002.2,N
1520362355.1,286047002.1,N
1520362356.0,286047002.1,N
1520362375.8,286047002.1,N
1520362395.7,286047002.3,N
1520362415.5,286046998.1,N
1520362435.3,286047000.7,N
1520362455.2,286047001.0,N
1520362475.0,286046998.4,N
1520362475.9,286046998.4,N
1520362495.7,286046999.1,N
1520362515.6,286046996.5,N
1520362535.4,286046999.2,N
1520362555.3,286046995.2,N
1520362575.1,286046996.4,N
1520362576.0,286046996.4,N
1520362595.8,286046995.6,N
1520362615.7,286046997.9,N
1520362635.5,286046999.4,N
1520362655.3,286046996.6,N
1520362675.2,286046999.2,N
1520362695.0,286046999.5,N
1520362695.9,286046999.5,N
1520362715.8,286046999.4,N
1520362735.6,286047001.1,N
1520362755.4,286046998.2,N
1520362775.3,286047000.7,N
1520362795.1,286047001.2,N
